Total_Precipitation_Accumulation
3.13 3.08 2.94 2.85 2.64 2.72 3.07 3.31 3.18 3.15 3.01 2.80 2.51 2.30 2.18 2.11 2.04 2.23 2.36 2.45 2.42 2.44 2.69 2.87 2.74 2.51 2.42 2.24 2.05 1.83 1.72 1.70 1.55 1.31 1.18 1.11 1.02 1.01 1.07 1.12 1.10 1.00 0.98
3.49 3.63 3.45 3.28 2.87 2.75 2.84 3.14 3.19 3.39 3.28 3.08 2.49 2.35 2.31 2.31 2.33 2.28 2.43 2.92 2.93 2.55 2.60 2.93 3.12 3.11 2.95 2.76 2.53 2.26 2.08 1.96 1.69 1.40 1.30 1.23 1.11 1.05 1.18 1.29 1.30 1.12 1.00
3.67 3.65 3.45 3.07 2.73 2.71 2.94 2.96 2.94 3.18 3.01 2.88 2.77 2.76 2.70 2.60 2.47 2.42 2.52 3.01 2.97 2.59 2.46 2.57 2.93 3.22 3.31 3.38 3.27 3.14 2.83 2.45 2.07 1.69 1.43 1.24 1.13 1.04 1.09 1.26 1.38 1.29 1.10
3.18 3.26 2.98 2.64 2.65 2.78 2.94 3.13 3.01 3.07 3.10 3.18 3.25 3.18 2.98 2.83 2.40 2.22 2.14 2.28 2.55 2.26 2.42 2.67 2.81 2.92 3.30 3.75 3.93 4.13 3.76 3.06 2.45 1.97 1.65 1.39 1.22 1.09 1.01 1.08 1.25 1.30 1.17
2.47 2.68 2.67 2.62 2.55 2.71 2.78 2.60 2.99 3.25 3.24 3.26 3.01 3.07 2.67 2.53 2.31 2.01 1.98 1.94 2.11 2.27 2.32 2.37 2.57 2.63 3.07 3.78 4.37 4.86 4.71 3.98 3.18 2.64 2.31 1.94 1.66 1.35 1.17 1.13 1.16 1.20 1.13
2.30 2.57 2.56 2.53 2.54 2.68 2.79 2.91 3.22 3.35 3.02 2.96 2.66 2.58 2.31 1.94 1.89 1.87 1.74 1.81 1.94 1.90 2.07 2.24 2.57 2.40 2.84 3.40 4.08 4.82 5.34 5.09 4.20 3.51 3.21 2.90 2.60 2.12 1.61 1.34 1.22 1.22 1.15
2.47 2.71 2.57 2.65 2.48 2.54 2.53 2.62 2.90 3.02 2.66 2.74 3.21 2.80 2.18 1.79 1.79 1.70 1.72 1.79 1.79 1.86 2.11 2.45 2.70 2.78 2.76 2.70 2.99 3.76 4.85 5.43 5.20 4.50 4.07 3.74 3.40 2.85 2.22 1.81 1.55 1.39 1.27
2.43 2.46 2.58 2.42 2.35 2.48 2.45 2.49 2.76 2.74 2.44 2.63 3.13 3.27 2.74 2.34 1.99 1.61 1.64 1.69 1.78 2.04 2.15 2.20 2.65 2.97 2.91 3.18 2.77 2.82 3.67 4.67 5.30 5.20 4.78 4.17 3.68 3.19 2.69 2.37 2.03 1.76 1.53
2.18 2.23 2.20 2.24 2.33 2.07 2.23 2.44 2.59 2.68 2.57 2.49 2.73 3.21 3.04 2.70 2.31 1.90 1.74 1.85 2.05 2.24 2.32 2.46 2.51 2.75 2.94 3.38 3.26 3.01 3.01 3.38 4.36 5.29 5.41 4.73 3.84 3.23 3.00 2.87 2.75 2.33 1.94
1.96 1.99 1.98 2.13 2.20 2.11 2.36 2.06 2.19 2.48 2.69 2.49 2.50 2.53 2.61 2.87 2.85 2.43 2.06 1.92 2.01 2.17 2.27 2.28 2.35 2.62 2.84 3.17 3.47 3.16 2.83 2.69 3.10 4.12 4.96 5.00 4.34 3.48 3.04 3.12 3.53 3.31 2.68
1.87 1.72 1.82 2.00 2.11 2.16 2.25 2.15 2.25 2.22 2.29 2.33 2.42 2.42 2.57 2.82 2.65 2.56 2.40 2.18 2.06 1.90 1.96 2.11 2.33 2.54 2.66 2.90 3.28 3.01 2.87 2.57 2.49 2.85 3.56 4.15 4.32 4.04 3.62 3.57 4.09 4.43 4.20
1.92 1.74 1.78 2.01 2.08 2.14 2.17 2.20 2.15 2.06 2.15 2.25 2.30 2.36 2.57 2.60 2.54 2.63 2.48 2.30 2.17 1.91 1.87 1.93 2.11 2.26 2.35 2.48 2.33 2.32 2.33 2.40 2.34 2.22 2.36 2.75 3.30 3.72 3.80 4.07 4.57 5.06 5.36
1.86 1.83 1.77 2.07 2.20 2.18 2.12 2.21 2.19 2.14 2.26 2.33 2.34 2.36 2.42 2.39 2.43 2.65 2.69 2.41 2.24 2.02 2.08 2.02 1.98 2.11 2.09 2.34 2.29 2.11 2.00 2.10 2.01 1.86 1.82 1.96 2.28 2.77 3.21 3.58 3.98 4.50 5.02
1.70 1.94 2.04 2.06 2.08 2.12 2.10 2.36 2.20 2.22 2.30 2.31 2.17 2.53 2.51 2.36 2.62 2.87 3.03 3.08 2.73 2.47 2.42 2.21 2.02 2.00 1.99 2.07 2.15 2.16 2.00 1.88 1.67 1.60 1.63 1.71 1.81 2.07 2.40 2.76 3.06 3.32 3.58
1.69 1.90 2.06 2.16 2.09 2.08 2.20 2.43 2.39 2.42 2.52 2.40 2.38 2.64 2.56 2.45 2.55 2.70 3.00 3.29 3.31 3.01 2.85 2.60 2.34 2.18 2.05 2.06 2.21 2.03 1.99 2.03 1.75 1.56 1.58 1.61 1.70 1.80 1.84 1.89 2.03 2.15 2.32
1.88 1.98 1.97 2.00 1.99 1.96 2.10 2.46 2.47 2.48 2.67 2.61 2.56 2.60 2.58 2.46 2.57 2.61 2.74 3.11 3.41 3.43 3.09 2.45 2.38 2.26 2.14 1.94 2.07 1.87 1.88 2.04 1.79 1.59 1.48 1.40 1.40 1.45 1.48 1.57 1.71 1.79 1.89
1.98 2.00 1.99 1.98 1.91 1.81 1.93 2.15 2.25 2.44 2.58 2.62 2.57 2.61 2.60 2.73 2.78 2.66 2.76 2.91 3.16 3.34 2.97 2.43 2.52 2.65 2.59 2.35 2.12 1.93 1.80 1.78 1.76 1.73 1.44 1.35 1.35 1.31 1.37 1.47 1.55 1.62 1.71
2.02 2.06 2.06 2.01 1.84 1.82 1.93 2.04 2.16 2.35 2.47 2.55 2.65 2.75 2.54 2.68 2.80 2.74 2.76 2.77 2.92 3.20 3.04 2.85 2.79 2.86 2.79 2.52 2.27 2.00 1.68 1.53 1.59 1.80 1.51 1.32 1.26 1.29 1.34 1.38 1.37 1.39 1.39
2.03 2.13 2.16 2.06 2.00 2.02 2.09 2.14 2.22 2.35 2.43 2.48 2.57 2.58 2.54 2.70 2.59 2.67 2.78 2.72 2.74 2.79 2.90 2.81 2.66 2.72 2.64 2.46 2.27 1.98 1.73 1.69 1.51 1.53 1.46 1.33 1.27 1.26 1.28 1.24 1.20 1.21 1.24
1.95 1.96 1.93 2.01 2.08 2.12 2.15 2.16 2.16 2.18 2.23 2.28 2.25 2.16 2.13 2.19 2.25 2.47 2.46 2.45 2.55 2.64 2.72 2.61 2.53 2.59 2.58 2.61 2.45 2.15 1.99 1.84 1.63 1.38 1.38 1.35 1.34 1.30 1.26 1.19 1.11 1.11 1.18
1.74 1.91 1.93 2.04 2.12 2.08 1.97 2.05 2.08 2.02 2.17 2.08 1.92 1.88 1.89 1.99 2.03 2.11 2.00 2.10 2.32 2.39 2.43 2.49 2.52 2.67 2.66 2.77 2.62 2.34 2.22 2.10 1.80 1.53 1.47 1.36 1.33 1.27 1.27 1.28 1.24 1.16 1.12
1.84 1.92 1.96 2.07 2.13 1.98 2.04 2.09 2.11 2.08 2.11 2.03 1.97 1.89 1.75 1.75 1.76 1.77 1.77 1.82 1.98 2.11 2.27 2.44 2.47 2.55 2.61 2.59 2.57 2.43 2.33 2.16 1.88 1.68 1.78 1.73 1.52 1.48 1.59 1.53 1.43 1.20 1.07
1.94 2.02 2.13 2.19 2.13 2.24 2.19 2.03 2.04 1.98 2.00 2.02 2.03 1.99 1.69 1.51 1.66 1.61 1.73 1.72 1.68 1.73 1.84 2.00 2.08 2.20 2.42 2.53 2.62 2.52 2.52 2.39 2.08 1.82 1.76 1.62 1.52 1.55 1.72 1.83 1.58 1.17 1.07
2.16 2.23 2.23 2.15 2.13 2.23 2.21 1.88 1.78 1.69 1.77 1.85 1.88 1.92 1.92 1.81 1.79 1.82 1.86 1.84 1.74 1.69 1.78 1.77 1.78 2.00 2.36 2.67 2.72 2.65 2.69 2.56 2.24 1.89 1.78 1.67 1.51 1.48 1.34 1.34 1.40 1.14 0.97
2.36 2.43 2.44 2.38 2.26 2.28 2.14 1.77 1.63 1.53 1.64 1.72 1.76 1.75 1.77 1.69 1.75 1.66 1.63 1.64 1.63 1.58 1.58 1.58 1.59 1.71 2.00 2.37 2.58 2.61 2.68 2.58 2.34 2.02 1.81 1.74 1.53 1.44 1.32 1.21 1.22 1.26 1.08
2.49 2.53 2.44 2.32 2.20 2.21 2.17 1.84 1.62 1.51 1.63 1.72 1.81 1.77 1.74 1.67 1.65 1.49 1.40 1.44 1.41 1.43 1.52 1.51 1.47 1.47 1.59 1.89 2.22 2.21 2.29 2.42 2.18 1.93 1.59 1.52 1.45 1.41 1.39 1.20 1.08 1.08 1.09